Simultaneous Nadir Overpasses (SNOs) Predictions

Prediction of SNOs between AQUA and NOAA-19 Satellite Orbit:

Table of predicted SNOs for the next 14.0 days since TLE Epoch: 1/3/2020
Index Date (AQUA) Time (AQUA) Lat,Lon (AQUA) SZA (AQUA ) Date (NOAA-19) Time (NOAA-19) Lat,Lon (NOAA-19) SZA (NOAA-19 ) Distance(km) Time Diff (sec)
1 01/04/2020 00:30:40 -80.06, -38.87 75.74 01/04/2020 00:29:54 -80.05, -38.95 75.73 2.34 46
2 01/04/2020 01:20:08 80.08, 128.59 104.29 01/04/2020 01:20:58 80.08, 128.74 104.26 2.92 50
3 01/06/2020 06:04:24 80.04, 57.91 104.00 01/06/2020 06:03:20 80.05, 57.79 104.05 2.59 64
4 01/06/2020 06:53:51 -80.08,-134.81 75.94 01/06/2020 06:54:15 -80.06,-134.83 75.97 2.76 24
5 01/08/2020 12:27:35 80.06, -38.08 103.78 01/08/2020 12:27:41 80.05, -38.15 103.78 1.69 6
6 01/10/2020 18:01:18 -80.05, 58.54 76.53 01/10/2020 18:00:57 -80.06, 58.68 76.53 2.69 21
7 01/10/2020 18:50:47 80.12,-134.38 103.58 01/10/2020 18:51:56 80.19,-132.18 103.42 42.52 69
8 01/12/2020 23:35:02 80.05, 155.17 103.14 01/12/2020 23:34:23 80.04, 155.19 103.14 1.03 39
9 01/13/2020 00:24:28 -80.04, -37.17 76.88 01/13/2020 00:25:18 -80.06, -37.20 76.88 2.27 50
10 01/15/2020 05:08:45 -80.04,-108.19 77.25 01/15/2020 05:07:40 -80.03,-108.13 77.23 1.43 65
11 01/15/2020 05:58:12 80.04, 59.41 102.76 01/15/2020 05:58:43 80.06, 59.51 102.76 2.90 31




NCC Satellite Simultaneous Nadir Overpasses (SNOs) Prediction Service
